TimeEDT,TemperatureF,Dew PointF,Humidity,Sea Level PressureIn,VisibilityMPH,Wind Direction,Wind SpeedMPH,Gust SpeedMPH,PrecipitationIn,Events,Conditions,WindDirDegrees,DateUTC
12:15 AM,48.2,41.0,76,30.32,10.0,Calm,Calm,-,N/A,,Clear,0,2013-05-26 04:15:00
12:35 AM,46.4,41.0,81,30.32,10.0,Calm,Calm,-,N/A,,Clear,0,2013-05-26 04:35:00
12:55 AM,46.4,39.2,76,30.32,10.0,NNE,4.6,-,N/A,,Clear,30,2013-05-26 04:55:00
1:15 AM,50.0,37.4,62,30.31,10.0,NE,4.6,-,N/A,,Clear,40,2013-05-26 05:15:00
1:35 AM,48.2,37.4,66,30.31,10.0,NE,4.6,-,N/A,,Clear,40,2013-05-26 05:35:00
1:55 AM,48.2,35.6,62,30.31,10.0,NE,3.5,-,N/A,,Clear,50,2013-05-26 05:55:00
2:15 AM,46.4,35.6,66,30.31,10.0,Calm,Calm,-,N/A,,Clear,0,2013-05-26 06:15:00
2:35 AM,44.6,35.6,71,30.30,10.0,Calm,Calm,-,N/A,,Clear,0,2013-05-26 06:35:00
2:55 AM,42.8,37.4,81,30.31,10.0,Calm,Calm,-,N/A,,Clear,0,2013-05-26 06:55:00
3:15 AM,42.8,37.4,81,30.31,10.0,Calm,Calm,-,N/A,,Clear,0,2013-05-26 07:15:00
3:35 AM,41.0,35.6,81,30.31,10.0,Calm,Calm,-,N/A,,Clear,0,2013-05-26 07:35:00
3:55 AM,41.0,35.6,81,30.31,10.0,Calm,Calm,-,N/A,,Clear,0,2013-05-26 07:55:00
4:15 AM,39.2,35.6,87,30.31,10.0,Calm,Calm,-,N/A,,Clear,0,2013-05-26 08:15:00
4:35 AM,39.2,35.6,87,30.31,10.0,Calm,Calm,-,N/A,,Clear,0,2013-05-26 08:35:00
4:55 AM,37.4,35.6,93,30.31,10.0,Calm,Calm,-,N/A,,Clear,0,2013-05-26 08:55:00
5:15 AM,37.4,33.8,87,30.31,10.0,Calm,Calm,-,N/A,,Clear,0,2013-05-26 09:15:00
5:35 AM,37.4,35.6,93,30.32,10.0,Calm,Calm,-,N/A,,Clear,0,2013-05-26 09:35:00
5:55 AM,37.4,35.6,93,30.33,10.0,Calm,Calm,-,N/A,,Clear,0,2013-05-26 09:55:00
6:15 AM,37.4,33.8,87,30.33,10.0,Calm,Calm,-,N/A,,Clear,0,2013-05-26 10:15:00
6:35 AM,37.4,33.8,87,30.35,10.0,Calm,Calm,-,N/A,,Clear,0,2013-05-26 10:35:00
6:55 AM,37.4,35.6,93,30.35,10.0,Calm,Calm,-,N/A,,Clear,0,2013-05-26 10:55:00
7:15 AM,41.0,37.4,87,30.34,10.0,Calm,Calm,-,N/A,,Clear,0,2013-05-26 11:15:00
7:35 AM,44.6,39.2,81,30.34,10.0,Calm,Calm,-,N/A,,Clear,0,2013-05-26 11:35:00
7:55 AM,46.4,37.4,71,30.34,10.0,Calm,Calm,-,N/A,,Clear,0,2013-05-26 11:55:00
8:15 AM,50.0,35.6,58,30.34,10.0,Calm,Calm,-,N/A,,Clear,0,2013-05-26 12:15:00
8:35 AM,53.6,33.8,47,30.33,10.0,NNE,3.5,-,N/A,,Clear,30,2013-05-26 12:35:00
8:55 AM,53.6,33.8,47,30.35,10.0,Calm,Calm,-,N/A,,Clear,0,2013-05-26 12:55:00
9:15 AM,55.4,32.0,41,30.36,10.0,Calm,Calm,-,N/A,,Clear,0,2013-05-26 13:15:00
9:35 AM,55.4,30.2,38,30.36,10.0,SE,3.5,-,N/A,,Clear,130,2013-05-26 13:35:00
9:55 AM,59.0,32.0,36,30.35,10.0,East,5.8,-,N/A,,Clear,100,2013-05-26 13:55:00
10:15 AM,59.0,32.0,36,30.35,10.0,NE,5.8,-,N/A,,Clear,40,2013-05-26 14:15:00
10:35 AM,59.0,30.2,34,30.35,10.0,ENE,3.5,-,N/A,,Clear,70,2013-05-26 14:35:00
10:55 AM,60.8,30.2,31,30.35,10.0,Calm,Calm,-,N/A,,Clear,0,2013-05-26 14:55:00
11:15 AM,60.8,30.2,31,30.34,10.0,SSE,3.5,-,N/A,,Clear,160,2013-05-26 15:15:00
11:35 AM,60.8,28.4,29,30.33,10.0,Calm,Calm,-,N/A,,Clear,0,2013-05-26 15:35:00
11:55 AM,62.6,28.4,27,30.33,10.0,SE,3.5,-,N/A,,Clear,130,2013-05-26 15:55:00
12:15 PM,62.6,28.4,27,30.33,10.0,NNE,3.5,-,N/A,,Clear,30,2013-05-26 16:15:00
12:35 PM,62.6,30.2,30,30.33,10.0,East,5.8,-,N/A,,Clear,100,2013-05-26 16:35:00
12:55 PM,62.6,30.2,30,30.33,10.0,NNE,4.6,-,N/A,,Clear,30,2013-05-26 16:55:00
1:15 PM,62.6,30.2,30,30.32,10.0,South,5.8,-,N/A,,Clear,180,2013-05-26 17:15:00
1:35 PM,64.4,28.4,26,30.32,10.0,NNE,3.5,-,N/A,,Clear,30,2013-05-26 17:35:00
1:55 PM,64.4,30.2,28,30.32,10.0,West,3.5,-,N/A,,Clear,260,2013-05-26 17:55:00
2:15 PM,66.2,32.0,28,30.31,10.0,East,4.6,-,N/A,,Clear,100,2013-05-26 18:15:00
2:35 PM,64.4,30.2,28,30.30,10.0,South,5.8,-,N/A,,Clear,180,2013-05-26 18:35:00
2:55 PM,68.0,30.2,24,30.30,10.0,SW,5.8,-,N/A,,Clear,220,2013-05-26 18:55:00
3:15 PM,66.2,30.2,26,30.29,10.0,Calm,Calm,-,N/A,,Clear,0,2013-05-26 19:15:00
3:35 PM,68.0,28.4,23,30.29,10.0,Calm,Calm,-,N/A,,Clear,0,2013-05-26 19:35:00
3:55 PM,68.0,30.2,24,30.28,10.0,SE,6.9,-,N/A,,Clear,140,2013-05-26 19:55:00
4:15 PM,68.0,30.2,24,30.28,10.0,SW,6.9,-,N/A,,Clear,220,2013-05-26 20:15:00
4:35 PM,68.0,28.4,23,30.27,10.0,SW,4.6,-,N/A,,Clear,220,2013-05-26 20:35:00
4:55 PM,68.0,28.4,23,30.27,10.0,West,3.5,-,N/A,,Clear,280,2013-05-26 20:55:00
5:15 PM,68.0,28.4,23,30.26,10.0,SSW,4.6,-,N/A,,Clear,200,2013-05-26 21:15:00
5:35 PM,68.0,28.4,23,30.26,10.0,SSW,4.6,-,N/A,,Clear,210,2013-05-26 21:35:00
5:55 PM,68.0,28.4,23,30.25,10.0,South,6.9,-,N/A,,Clear,170,2013-05-26 21:55:00
6:15 PM,68.0,26.6,21,30.25,10.0,South,8.1,-,N/A,,Clear,190,2013-05-26 22:15:00
6:35 PM,68.0,26.6,21,30.25,10.0,SSW,5.8,-,N/A,,Clear,200,2013-05-26 22:35:00
6:55 PM,66.2,26.6,23,30.25,10.0,South,6.9,-,N/A,,Clear,180,2013-05-26 22:55:00
7:15 PM,66.2,26.6,23,30.25,10.0,South,6.9,-,N/A,,Clear,190,2013-05-26 23:15:00
7:35 PM,64.4,26.6,24,30.24,10.0,South,5.8,-,N/A,,Clear,190,2013-05-26 23:35:00
7:55 PM,64.4,26.6,24,30.23,10.0,South,3.5,-,N/A,,Clear,180,2013-05-26 23:55:00
8:15 PM,62.6,28.4,27,30.23,10.0,Calm,Calm,-,N/A,,Clear,0,2013-05-27 00:15:00
8:35 PM,62.6,30.2,30,30.23,10.0,Calm,Calm,-,N/A,,Clear,0,2013-05-27 00:35:00
8:55 PM,59.0,32.0,36,30.23,10.0,Calm,Calm,-,N/A,,Clear,0,2013-05-27 00:55:00
9:15 PM,59.0,33.8,39,30.23,10.0,Calm,Calm,-,N/A,,Clear,0,2013-05-27 01:15:00
9:35 PM,57.2,33.8,41,30.24,10.0,Calm,Calm,-,N/A,,Clear,0,2013-05-27 01:35:00
9:55 PM,55.4,33.8,44,30.24,10.0,Calm,Calm,-,N/A,,Clear,0,2013-05-27 01:55:00
10:15 PM,57.2,33.8,41,30.24,10.0,Calm,Calm,-,N/A,,Clear,0,2013-05-27 02:15:00
10:35 PM,55.4,35.6,47,30.25,10.0,Calm,Calm,-,N/A,,Clear,0,2013-05-27 02:35:00
10:55 PM,55.4,35.6,47,30.25,10.0,Calm,Calm,-,N/A,,Clear,0,2013-05-27 02:55:00
11:15 PM,53.6,37.4,54,30.25,10.0,Calm,Calm,-,N/A,,Clear,0,2013-05-27 03:15:00
11:35 PM,53.6,39.2,58,30.26,10.0,Calm,Calm,-,N/A,,Clear,0,2013-05-27 03:35:00
11:55 PM,53.6,37.4,54,30.26,10.0,Calm,Calm,-,N/A,,Clear,0,2013-05-27 03:55:00